Location: ??????
(31.2056°N, 45.3906°E)
Time: 21:17:51
(UTC+00:00)

SJ-11-01 - Pass Details

Date: 09 April 2020
Orbit: 684 x 701 km, 98.0° (Epoch: 02 June)

Event Time Altitude Azimuth Distance (km) Brightness Sun altitude
Rises 16:24:03 0° 167° (SSE) 3,046 7.3 -13.5°
Reaches altitude 10° 16:26:16 10° 168° (SSE) 2,136 6.5 -13.9°
Maximum altitude 16:30:57 88° 254° (WSW) 699 4.3 -14.9°
Drops below altitude 10° 16:35:42 10° 347° (NNW) 2,160 7.3 -15.8°
Sets 16:37:58 0° 348° (NNW) 3,083 8.1 -16.3°
